Weather History for KVBT - October, 2010

Change the Weather History Date:

Wednesday, October 13, 2010

  Actual Average (KFYV) Record (KFYV)
Temperature  
Mean Temperature 62 °F 58 °F  
Max Temperature 69 °F 71 °F 89 °F (1963)
Min Temperature 55 °F 46 °F 31 °F (1987)
Degree Days  
Heating Degree Days 3 7  
Month to date heating degree days 77  
Since 1 July heating degree days 129  
Cooling Degree Days 0 1  
Month to date cooling degree days 16  
Year to date cooling degree days 1299  
Growing Degree Days 12 (Base 50)    
Moisture  
Dew Point 49 °F    
Average Humidity 67    
Maximum Humidity 94    
Minimum Humidity 33    
Precipitation  
Precipitation 0.00 in 0.14 in - ()
Month to date precipitation 1.86  
Year to date precipitation 38.57  
Sea Level Pressure  
Sea Level Pressure 30.16 in    
Wind  
Wind Speed 7 mph (North)    
Max Wind Speed 14 mph    
Max Gust Speed 21 mph    
Visibility 9 miles    
Events      
T = Trace of Precipitation, MM = Missing Value Source: NWS Daily Summary

Daily Weather History Graph

Daily Weather History Graph

Search for Another Location

Airport or City:

Trip Planner

Search our weather history database for the weather conditions in past years. The results will help you decide how hot, cold, wet, or windy it might be!

Date:

Astronomy

Oct. 13, 2010 Rise Set
Actual Time 7:22 AM CDT 6:43 PM CDT
Civil Twilight 6:56 AM CDT 7:09 PM CDT
Nautical Twilight 6:26 AM CDT 7:39 PM CDT
Astronomical Twilight 5:56 AM CDT 8:08 PM CDT
Moon 1:34 PM CDT (10/13) 11:30 PM CDT (10/13)
Length of Visible Light 12h 12m
Length of Day
11h 21m
Waxing Crescent, 38% of the Moon is Illuminated
Oct 13
Waxing Crescent
Oct 14
First Quarter
Oct 22
Full
Oct 30
Last Quarter
Nov 5
New

Hourly Weather History & Observations

Time (CDT) Temp. Windchill Dew Point Humidity Pressure Visibility Wind Dir Wind Speed Gust Speed Precip Events Conditions
12:15 AM 55.4 °F - 53.6 °F 94% 30.06 in 3.0 mi NNW 3.5 mph - N/A   Partly Cloudy
12:35 AM 55.4 °F - 53.6 °F 94% 30.06 in 5.0 mi NNW 3.5 mph - N/A   Partly Cloudy
12:55 AM 55.4 °F - 53.6 °F 94% 30.06 in 7.0 mi Calm Calm - N/A   Clear
1:15 AM 57.2 °F - 53.6 °F 88% 30.07 in 7.0 mi Calm Calm - N/A   Clear
1:35 AM 57.2 °F - 53.6 °F 88% 30.07 in 8.0 mi Calm Calm - N/A   Partly Cloudy
1:55 AM 57.2 °F - 53.6 °F 88% 30.07 in 8.0 mi North 3.5 mph - N/A   Mostly Cloudy
2:15 AM 57.2 °F - 53.6 °F 88% 30.07 in 10.0 mi North 4.6 mph - N/A   Partly Cloudy
2:35 AM 57.2 °F - 53.6 °F 88% 30.07 in 10.0 mi North 5.8 mph - N/A   Clear
2:55 AM 57.2 °F - 53.6 °F 88% 30.07 in 10.0 mi North 4.6 mph - N/A   Clear
3:15 AM 57.2 °F - 53.6 °F 88% 30.07 in 10.0 mi North 4.6 mph - N/A   Clear
3:35 AM 57.2 °F - 53.6 °F 88% 30.07 in 10.0 mi North 4.6 mph - N/A   Clear
3:55 AM 57.2 °F - 53.6 °F 88% 30.08 in 10.0 mi North 6.9 mph - N/A   Clear
4:15 AM 57.2 °F - 53.6 °F 88% 30.08 in 10.0 mi North 6.9 mph - N/A   Clear
4:35 AM 57.2 °F - 53.6 °F 88% 30.08 in 10.0 mi North 8.1 mph - N/A   Clear
4:55 AM 57.2 °F - 53.6 °F 88% 30.09 in 10.0 mi North 9.2 mph - N/A   Clear
5:15 AM 57.2 °F - 53.6 °F 88% 30.10 in 10.0 mi North 8.1 mph - N/A   Clear
5:35 AM 57.2 °F - 51.8 °F 82% 30.10 in 10.0 mi North 8.1 mph - N/A   Clear
5:55 AM 57.2 °F - 51.8 °F 82% 30.11 in 10.0 mi North 6.9 mph - N/A   Clear
6:15 AM 55.4 °F - 51.8 °F 88% 30.12 in 10.0 mi North 8.1 mph - N/A   Clear
6:35 AM 55.4 °F - 51.8 °F 88% 30.13 in 10.0 mi North 5.8 mph - N/A   Clear
6:55 AM 55.4 °F - 51.8 °F 88% 30.13 in 10.0 mi North 5.8 mph - N/A   Clear
7:15 AM 55.4 °F - 51.8 °F 88% 30.14 in 10.0 mi North 6.9 mph - N/A   Clear
7:35 AM 55.4 °F - 51.8 °F 88% 30.15 in 10.0 mi North 8.1 mph - N/A   Clear
7:55 AM 57.2 °F - 51.8 °F 82% 30.16 in 10.0 mi North 6.9 mph - N/A   Clear
8:15 AM 57.2 °F - 51.8 °F 82% 30.17 in 10.0 mi North 8.1 mph - N/A   Clear
8:35 AM 57.2 °F - 51.8 °F 82% 30.18 in 10.0 mi North 8.1 mph - N/A   Clear
8:55 AM 59.0 °F - 53.6 °F 82% 30.18 in 10.0 mi North 10.4 mph - N/A   Clear
9:15 AM 59.0 °F - 51.8 °F 77% 30.20 in 10.0 mi North 9.2 mph - N/A   Clear
9:35 AM 60.8 °F - 53.6 °F 77% 30.20 in 10.0 mi North 10.4 mph - N/A   Clear
9:55 AM 60.8 °F - 51.8 °F 72% 30.21 in 10.0 mi North 13.8 mph - N/A   Partly Cloudy
10:15 AM 62.6 °F - 51.8 °F 68% 30.21 in 10.0 mi North 12.7 mph 16.1 mph N/A   Mostly Cloudy
10:35 AM 60.8 °F - 51.8 °F 72% 30.22 in 10.0 mi North 9.2 mph - N/A   Partly Cloudy
10:55 AM 64.4 °F - 51.8 °F 64% 30.21 in 10.0 mi North 13.8 mph 19.6 mph N/A   Clear
11:15 AM 64.4 °F - 50.0 °F 59% 30.22 in 10.0 mi NNE 9.2 mph 16.1 mph N/A   Clear
11:35 AM 64.4 °F - 50.0 °F 59% 30.22 in 8.0 mi NNW 9.2 mph - N/A   Clear
11:55 AM 66.2 °F - 50.0 °F 56% 30.22 in 10.0 mi North 9.2 mph - N/A   Clear
12:15 PM 66.2 °F - 50.0 °F 56% 30.22 in 10.0 mi North 10.4 mph - N/A   Clear
12:35 PM 66.2 °F - 48.2 °F 52% 30.22 in 7.0 mi North 11.5 mph - N/A   Clear
12:55 PM 68.0 °F - 50.0 °F 52% 30.21 in 5.0 mi North 13.8 mph - N/A   Clear
1:15 PM 68.0 °F - 48.2 °F 49% 30.21 in 5.0 mi North 12.7 mph 19.6 mph N/A   Clear
1:35 PM 68.0 °F - 48.2 °F 49% 30.20 in 9.0 mi North 13.8 mph 20.7 mph N/A   Clear
1:55 PM 68.0 °F - 46.4 °F 46% 30.20 in 3.0 mi North 13.8 mph 19.6 mph N/A   Clear
2:15 PM 69.8 °F - 46.4 °F 43% 30.20 in 8.0 mi North 13.8 mph 17.3 mph N/A   Clear
2:35 PM 69.8 °F - 46.4 °F 43% 30.19 in 10.0 mi NNW 11.5 mph 16.1 mph N/A   Clear
2:55 PM 69.8 °F - 46.4 °F 43% 30.19 in 5.0 mi NNW 12.7 mph 16.1 mph N/A   Clear
3:15 PM 69.8 °F - 44.6 °F 40% 30.19 in 10.0 mi NNW 9.2 mph 20.7 mph N/A   Clear
3:35 PM 69.8 °F - 44.6 °F 40% 30.19 in 9.0 mi NNW 11.5 mph 18.4 mph N/A   Clear
3:55 PM 69.8 °F - 42.8 °F 38% 30.19 in 10.0 mi North 12.7 mph 16.1 mph N/A   Clear
4:15 PM 69.8 °F - 42.8 °F 38% 30.19 in 7.0 mi NW 11.5 mph 17.3 mph N/A   Clear
4:35 PM 69.8 °F - 39.2 °F 33% 30.18 in 7.0 mi NNW 10.4 mph 18.4 mph N/A   Clear
4:55 PM 69.8 °F - 39.2 °F 33% 30.19 in 10.0 mi North 12.7 mph 16.1 mph N/A   Clear
5:15 PM 68.0 °F - 39.2 °F 35% 30.19 in 10.0 mi NNW 10.4 mph 18.4 mph N/A   Clear
5:35 PM 66.2 °F - 37.4 °F 35% 30.19 in 10.0 mi NNW 8.1 mph 17.3 mph N/A   Clear
5:55 PM 66.2 °F - 37.4 °F 35% 30.20 in 10.0 mi North 10.4 mph 16.1 mph N/A   Clear
6:15 PM 64.4 °F - 37.4 °F 37% 30.20 in 10.0 mi NNW 8.1 mph - N/A   Clear
6:35 PM 62.6 °F - 37.4 °F 39% 30.21 in 10.0 mi North 11.5 mph - N/A   Clear
6:55 PM 60.8 °F - 35.6 °F 39% 30.22 in 10.0 mi North 9.2 mph - N/A   Clear
7:15 PM 59.0 °F - 35.6 °F 42% 30.22 in 10.0 mi North 6.9 mph - N/A   Clear
7:35 PM 57.2 °F - 35.6 °F 44% 30.23 in 10.0 mi North 5.8 mph - N/A   Clear
7:55 PM 55.4 °F - 35.6 °F 47% 30.24 in 10.0 mi NNW 4.6 mph - N/A   Clear
8:15 PM 55.4 °F - 35.6 °F 47% 30.24 in 10.0 mi NNW 3.5 mph - N/A   Clear
8:35 PM 51.8 °F - 37.4 °F 58% 30.24 in 10.0 mi Calm Calm - N/A   Clear
8:55 PM 51.8 °F - 37.4 °F 58% 30.24 in 10.0 mi Calm Calm - N/A   Clear
9:15 PM 48.2 °F - 37.4 °F 66% 30.24 in 10.0 mi Calm Calm - N/A   Clear
9:35 PM 48.2 °F - 37.4 °F 66% 30.24 in 10.0 mi Calm Calm - N/A   Clear
9:55 PM 48.2 °F - 37.4 °F 66% 30.25 in 10.0 mi Calm Calm - N/A   Clear
10:15 PM 46.4 °F - 35.6 °F 66% 30.26 in 10.0 mi Calm Calm - N/A   Clear
10:35 PM 46.4 °F - 37.4 °F 71% 30.26 in 10.0 mi Calm Calm - N/A   Clear
10:55 PM 46.4 °F 45.2 °F 37.4 °F 71% 30.27 in 10.0 mi North 3.5 mph - N/A   Clear
11:15 PM 48.2 °F - 37.4 °F 66% 30.27 in 10.0 mi North 3.5 mph - N/A   Clear
11:35 PM 48.2 °F - 37.4 °F 66% 30.27 in 10.0 mi North 3.5 mph - N/A   Clear
11:55 PM 48.2 °F - 37.4 °F 66% 30.27 in 10.0 mi Calm Calm - N/A   Clear